When you browse on this site, cookies collect data to enhance your experience and personalize the content and advertising you see.
Visit our Privacy Policy to learn more. By continuing to use the site, you agree to this use of cookies and data.
  • In United Kingdom
  • List of Countries
  • For 7 days
  • Water Temperature
  • Weather Map
  • Weather Widgets
  • user-avatar
    Login

    Hourly Weather Durres

    Today, 10 December, Tuesday

    Time Temperature Precipitation Wind Pressure Humidity
    00:00 +11°C° 0.8 mm 6 mps 755 mmHg 80%
    01:00 +10°C° 0 mm 6 mps 754 mmHg 83%
    02:00 +10°C° 0.9 mm 6 mps 754 mmHg 85%
    03:00 +10°C° 0.9 mm 6 mps 754 mmHg 86%
    04:00 +10°C° 0.9 mm 6 mps 754 mmHg 88%
    05:00 +10°C° 1.8 mm 7 mps 754 mmHg 90%
    06:00 +10°C° 1.8 mm 7 mps 754 mmHg 91%
    07:00 +10°C° 0 mm 8 mps 754 mmHg 92%
    08:00 +10°C° 0.4 mm 7 mps 754 mmHg 90%
    09:00 +10°C° 0.4 mm 6 mps 754 mmHg 88%
    10:00 +11°C° 0.4 mm 6 mps 754 mmHg 86%
    11:00 +12°C° 0 mm 5 mps 754 mmHg 84%
    12:00 +12°C° 0 mm 4 mps 754 mmHg 82%
    13:00 +12°C° 0 mm 4 mps 754 mmHg 80%
    14:00 +12°C° 0.1 mm 4 mps 754 mmHg 82%
    15:00 +12°C° 0.1 mm 4 mps 754 mmHg 83%
    16:00 +12°C° 0.1 mm 4 mps 754 mmHg 85%
    17:00 +10°C° 0 mm 5 mps 754 mmHg 84%
    18:00 +10°C° 0 mm 5 mps 754 mmHg 84%
    19:00 +10°C° 0 mm 5 mps 754 mmHg 84%
    20:00 +10°C° 0 mm 5 mps 754 mmHg 82%
    21:00 +10°C° 0 mm 5 mps 754 mmHg 80%
    22:00 +11°C° 0 mm 4 mps 754 mmHg 78%
    23:00 +10°C° 0 mm 5 mps 754 mmHg 78%

    Tomorrow, 11 December, Wednesday

    Time Temperature Precipitation Wind Pressure Humidity
    00:00 +10°C° 0 mm 5 mps 754 mmHg 78%
    01:00 +10°C° 0 mm 6 mps 755 mmHg 77%
    02:00 +10°C° 0 mm 6 mps 754 mmHg 77%
    03:00 +9°C° 0 mm 6 mps 754 mmHg 77%
    04:00 +9°C° 0 mm 6 mps 754 mmHg 76%
    05:00 +9°C° 0 mm 7 mps 754 mmHg 76%
    06:00 +9°C° 0 mm 7 mps 754 mmHg 75%
    07:00 +9°C° 0 mm 7 mps 754 mmHg 75%
    08:00 +10°C° 0 mm 7 mps 755 mmHg 72%
    09:00 +11°C° 0 mm 7 mps 755 mmHg 69%
    10:00 +13°C° 0 mm 6 mps 755 mmHg 66%
    11:00 +13°C° 0 mm 6 mps 755 mmHg 64%
    12:00 +14°C° 0 mm 6 mps 755 mmHg 61%
    13:00 +14°C° 0 mm 5 mps 754 mmHg 59%
    14:00 +14°C° 0 mm 5 mps 754 mmHg 62%
    15:00 +13°C° 0 mm 5 mps 754 mmHg 66%
    16:00 +12°C° 0 mm 5 mps 754 mmHg 69%
    17:00 +12°C° 0 mm 5 mps 754 mmHg 70%
    18:00 +10°C° 0 mm 5 mps 755 mmHg 71%
    19:00 +10°C° 0 mm 5 mps 755 mmHg 73%
    20:00 +10°C° 0 mm 4 mps 755 mmHg 73%
    21:00 +10°C° 0 mm 4 mps 755 mmHg 74%
    22:00 +8°C° 0 mm 4 mps 755 mmHg 74%
    23:00 +9°C° 0 mm 3 mps 754 mmHg 74%

    Day after tomorrow, 12 December, Thursday

    Time Temperature Precipitation Wind Pressure Humidity
    00:00 +9°C° 0 mm 3 mps 754 mmHg 74%
    01:00 +8°C° 0 mm 3 mps 754 mmHg 75%
    02:00 +8°C° 0 mm 3 mps 754 mmHg 75%
    03:00 +8°C° 0 mm 2 mps 753 mmHg 75%
    04:00 +8°C° 0 mm 2 mps 753 mmHg 75%
    05:00 +8°C° 0 mm 2 mps 753 mmHg 75%
    06:00 +8°C° 0 mm 2 mps 753 mmHg 74%
    07:00 +7°C° 0 mm 2 mps 753 mmHg 74%
    08:00 +9°C° 0 mm 2 mps 753 mmHg 70%
    09:00 +10°C° 0 mm 2 mps 753 mmHg 66%
    10:00 +12°C° 0 mm 2 mps 753 mmHg 62%
    11:00 +13°C° 0 mm 2 mps 753 mmHg 62%
    12:00 +13°C° 0 mm 2 mps 753 mmHg 62%
    13:00 +14°C° 0 mm 2 mps 753 mmHg 62%
    14:00 +13°C° 0.1 mm 2 mps 753 mmHg 66%
    15:00 +11°C° 0.1 mm 3 mps 752 mmHg 69%
    16:00 +11°C° 0.1 mm 3 mps 752 mmHg 73%
    17:00 +10°C° 0.1 mm 4 mps 752 mmHg 75%
    18:00 +10°C° 0.1 mm 4 mps 753 mmHg 76%
    19:00 +9°C° 0.1 mm 5 mps 753 mmHg 78%
    20:00 +9°C° 0.4 mm 5 mps 752 mmHg 79%
    21:00 +9°C° 0.4 mm 5 mps 752 mmHg 81%
    22:00 +8°C° 0.4 mm 6 mps 752 mmHg 82%
    23:00 +9°C° 0.7 mm 6 mps 752 mmHg 82%

    13 December, Friday

    Time Temperature Precipitation Wind Pressure Humidity
    00:00 +9°C° 0.7 mm 5 mps 752 mmHg 82%
    01:00 +9°C° 0.7 mm 5 mps 752 mmHg 82%
    02:00 +9°C° 0.5 mm 5 mps 751 mmHg 80%
    03:00 +9°C° 0.5 mm 6 mps 751 mmHg 79%
    04:00 +9°C° 0.5 mm 6 mps 751 mmHg 77%
    05:00 +9°C° 0.3 mm 6 mps 751 mmHg 80%
    06:00 +9°C° 0.3 mm 5 mps 751 mmHg 82%
    07:00 +8°C° 0.3 mm 5 mps 751 mmHg 84%
    08:00 +9°C° 0.1 mm 5 mps 751 mmHg 79%
    09:00 +10°C° 0.1 mm 5 mps 751 mmHg 75%
    10:00 +12°C° 0.1 mm 5 mps 751 mmHg 70%
    11:00 +13°C° 0.1 mm 5 mps 751 mmHg 67%
    12:00 +13°C° 0.1 mm 5 mps 751 mmHg 64%
    13:00 +13°C° 0.1 mm 6 mps 750 mmHg 61%
    14:00 +13°C° 0 mm 6 mps 750 mmHg 66%
    15:00 +11°C° 0 mm 7 mps 750 mmHg 71%
    16:00 +10°C° 0 mm 7 mps 749 mmHg 75%
    17:00 +10°C° 0.2 mm 8 mps 749 mmHg 77%
    18:00 +8°C° 0.2 mm 9 mps 748 mmHg 78%
    19:00 +8°C° 0.2 mm 10 mps 748 mmHg 79%
    20:00 +8°C° 0.8 mm 11 mps 747 mmHg 79%
    21:00 +8°C° 0.8 mm 12 mps 746 mmHg 78%
    22:00 +8°C° 0.8 mm 13 mps 745 mmHg 77%
    23:00 +8°C° 1.4 mm 13 mps 744 mmHg 77%

    14 December, Saturday

    Time Temperature Precipitation Wind Pressure Humidity
    00:00 +8°C° 1.4 mm 13 mps 743 mmHg 78%
    01:00 +8°C° 1.4 mm 13 mps 741 mmHg 78%
    02:00 +8°C° 4.1 mm 12 mps 741 mmHg 79%
    03:00 +8°C° 4.1 mm 11 mps 741 mmHg 81%
    04:00 +8°C° 4.1 mm 10 mps 741 mmHg 82%
    05:00 +9°C° 0.3 mm 8 mps 742 mmHg 83%
    06:00 +9°C° 0.3 mm 6 mps 743 mmHg 83%
    07:00 +9°C° 0.3 mm 5 mps 743 mmHg 84%
    08:00 +9°C° 0 mm 5 mps 745 mmHg 80%
    09:00 +10°C° 0 mm 5 mps 746 mmHg 76%
    10:00 +12°C° 0 mm 5 mps 747 mmHg 71%
    11:00 +13°C° 0 mm 5 mps 747 mmHg 68%
    12:00 +14°C° 0 mm 5 mps 748 mmHg 65%
    13:00 +15°C° 0 mm 5 mps 749 mmHg 62%
    14:00 +14°C° 0 mm 6 mps 750 mmHg 67%
    15:00 +12°C° 0 mm 7 mps 751 mmHg 71%
    16:00 +11°C° 0 mm 8 mps 752 mmHg 75%
    17:00 +11°C° 0 mm 7 mps 754 mmHg 76%
    18:00 +10°C° 0 mm 6 mps 755 mmHg 77%
    19:00 +9°C° 0 mm 5 mps 756 mmHg 78%
    20:00 +10°C° 0 mm 4 mps 757 mmHg 77%
    21:00 +10°C° 0 mm 4 mps 757 mmHg 77%
    22:00 +10°C° 0 mm 3 mps 758 mmHg 76%
    23:00 +10°C° 0 mm 3 mps 759 mmHg 75%

    15 December, Sunday

    Time Temperature Precipitation Wind Pressure Humidity
    00:00 +9°C° 0 mm 3 mps 759 mmHg 74%
    01:00 +9°C° 0 mm 3 mps 759 mmHg 73%
    02:00 +9°C° 0 mm 2 mps 760 mmHg 72%
    03:00 +9°C° 0 mm 2 mps 760 mmHg 71%
    04:00 +9°C° 0 mm 2 mps 760 mmHg 70%
    05:00 +9°C° 0 mm 2 mps 761 mmHg 70%
    06:00 +10°C° 0 mm 1 mps 761 mmHg 69%
    07:00 +10°C° 0 mm 1 mps 762 mmHg 69%
    08:00 +11°C° 0 mm 1 mps 762 mmHg 66%
    09:00 +13°C° 0 mm 1 mps 762 mmHg 63%
    10:00 +15°C° 0 mm 1 mps 763 mmHg 59%
    11:00 +15°C° 0 mm 2 mps 763 mmHg 59%
    12:00 +16°C° 0 mm 2 mps 763 mmHg 58%
    13:00 +17°C° 0 mm 2 mps 763 mmHg 57%
    14:00 +16°C° 0 mm 3 mps 763 mmHg 62%
    15:00 +14°C° 0 mm 4 mps 763 mmHg 67%
    16:00 +13°C° 0 mm 4 mps 764 mmHg 72%
    17:00 +13°C° 0 mm 5 mps 764 mmHg 73%
    18:00 +12°C° 0 mm 5 mps 764 mmHg 74%
    19:00 +12°C° 0 mm 5 mps 765 mmHg 75%
    20:00 +12°C° 0 mm 5 mps 765 mmHg 75%
    21:00 +12°C° 0 mm 5 mps 766 mmHg 74%
    22:00 +10°C° 0 mm 5 mps 766 mmHg 74%
    23:00 +11°C° 0 mm 4 mps 766 mmHg 73%
    Show more